Regional Weather Roundup
Issued by NWS Upton, NY

Current Version | Previous Version | Text Only | Print | Product List | Glossary On
Versions: 1 2 3 4 5 6 7 8 9 10 11 12 13 14 15 16 17 18 19 20 21 22 23 24 25 26 27 28 29 30 31 32 33 34 35 36 37 38 39 40 41 42 43 44 45 46 47 48 49 50
000 ASUS41 KOKX 292318 RWROKX REGIONAL WEATHER ROUNDUP NATIONAL WEATHER SERVICE NEW YORK NY 700 PM EDT FRI MAY 29 2015 NOTE: "FAIR" INDICATES FEW OR NO CLOUDS BELOW 12,000 FEET WITH NO SIGNIFICANT WEATHER AND/OR OBSTRUCTIONS TO VISIBILITY. NYZ071-072-176-178-NJZ106-104-300000- NEW YORK CITY METRO AREA CITY SKY/WX TMP DP RH WIND PRES REMARKS CENTRAL PARK PTSUNNY 72 56 57 VRB5 30.25S LAGUARDIA APRT PTSUNNY 73 56 54 S9 30.23R KENNEDY INTL PTSUNNY 68 58 70 SE8 30.25S NEWARK/LIBERTY PTSUNNY 73 56 54 VRB6 30.22S BRNX BOT. GARD N/A 72 55 56 SE9 30.25S TETERBORO PTSUNNY 75 56 51 S9 30.21R $$ NYZ177-179-078>081-300000- LONG ISLAND NEW YORK CITY SKY/WX TMP DP RH WIND PRES REMARKS FARMINGDALE PTSUNNY 69 58 67 S7 30.25R ISLIP PTSUNNY 67 58 72 SE8 30.24R SHIRLEY MOSUNNY 66 58 75 SE8 30.25S WESTHAMPTON MOSUNNY 63 59 87 SE3 30.26F MONTAUK POINT N/A 64 59 83 CALM 30.27R $$ NYZ052-065-067-300000- HUDSON VALLEY CITY SKY/WX TMP DP RH WIND PRES REMARKS WHITE PLAINS PTSUNNY 73 57 57 SE8 30.23R NEWBURGH NOT AVBL MONTGOMERY PTSUNNY 79 61 53 SE7 30.19S POUGHKEEPSIE PTSUNNY 81 59 47 S5 30.19S ALBANY CLOUDY 80 53 39 S8 30.18S $$ NJZ001-105-106-008-010-013-015-019>022-104-300000- NEW JERSEY CITY SKY/WX TMP DP RH WIND PRES REMARKS NEWARK/LIBERTY PTSUNNY 73 56 54 VRB6 30.22S TETERBORO PTSUNNY 75 56 51 S9 30.21R CALDWELL PTSUNNY 74 55 51 S6 30.21R MORRISTOWN PTSUNNY 77 57 50 S7G16 30.21R SOMERVILLE PTSUNNY 80 60 50 S8 30.18R SUSSEX PTSUNNY 82 58 43 CALM 30.22R ANDOVER N/A 80 60 50 CALM 30.21S TRENTON PTSUNNY 79 60 52 SE13 30.19R MILLVILLE SUNNY 75 65 70 SE6 30.21F ATLANTIC CITY MOSUNNY 72 62 71 SE7 30.23F WRIGHTSTOWN PTSUNNY 76 61 59 SE7 30.19R TOMS RIVER MOSUNNY N/A N/A N/A SE8 30.23S BELMAR MOSUNNY 70 55 60 S6 30.24S $$ PAZ047>061-062-071-300000- EASTERN PENNSYLVANIA CITY SKY/WX TMP DP RH WIND PRES REMARKS PHILADELPHIA PTSUNNY 82 64 54 S8 30.19S ALLENTOWN MOSUNNY 86 58 38 S8 30.18S SCRANTON PTSUNNY 82 56 40 S6 30.18F $$ CTZ002-004>006-009-010-012-RIZ004-006-007-MAZ004-011-015-300000- SOUTHERN NEW ENGLAND IN CT CITY SKY/WX TMP DP RH WIND PRES REMARKS BRADLEY INTL CLOUDY 80 58 46 S12 30.20S HARTFORD PTSUNNY 78 58 49 S9 30.21R DANBURY PTSUNNY 74 56 53 S10 30.23S WTRBRY/OXFORD SUNNY 73 59 60 S9 30.25S BRIDGEPORT PTSUNNY 72 60 66 E7 30.22F MERIDEN PTSUNNY 78 56 46 S8 30.22S NEW HAVEN PTSUNNY 72 58 61 SE9 30.23S CHESTER FAIR 70 59 68 SE6 30.25F GROTON MOSUNNY 64 56 75 S6 30.25S WILLIMANTIC MOSUNNY 77 58 51 S8 30.23S IN RI CITY SKY/WX TMP DP RH WIND PRES REMARKS PROVIDENCE PTSUNNY 68 57 68 SE9 30.25S BLOCK ISLAND MOSUNNY 63 57 82 SW7 30.26S WESTERLY SUNNY 64 57 78 S5 30.26S IN MA CITY SKY/WX TMP DP RH WIND PRES REMARKS BOSTON FOG 56 56 100 E7 30.26S VSB 1/4 WORCESTER MOSUNNY 76 57 51 SE7 30.25S WESTFIELD PTSUNNY 79 58 48 S3 30.20S PROVINCETOWN SUNNY 63 55 77 E6 30.27R NANTUCKET SUNNY 63 57 81 SE3 30.26S $$ ANZ330-335-338-340-345-350-353-355-300000- COASTAL MARINE OBSERVATIONS STATION/POSITION TIME SKY/WX TEMP WIND PRES VSBY WAVE AIR SEA DIR/SP/G HT/PER (UTC) (F) (DEG/KT/KT) (MB) (MI) (FT/S) NY HARB ENTRANCE 2250 62 62 160/ 6/ 8 1023.5 2/ 8 4S FIRE IS 2203 59 N/A 2/ 8 20S FIRE ISLAND 2250 58 60 160/ 4/ 4 1024.0 2/ 9 GREAT SOUTH BAY 2200 63 70 160/ 4/ 8 N/A 23SW MTP 2250 58 58 190/ 4/ 4 1024.2 2/ 8 HUDSON CANYON NOT AVBL KINGS POINT 2200 71 60 200/ 10/ 10 1022.7 CENTRAL LI SOUND 2200 69 67 150/ 8/ 10 N/A EASTERN LI SOUND 2200 64 120/ 6/ 8 N/A ROBBINS REEF 2200 65 160/ 16/ 17 1022.3 $$ >>>>>>>>>>>>>>>>>>>>>>>>>>>> KEY <<<<<<<<<<<<<<<<<<<<<<<<<<< > < > SKY/WX - SKY CONDITION/PRESENT WEATHER < > TMP - TEMPERATURE IN FAHRENHEIT < > DP - DEWPOINT IN FAHRENHEIT < > RH - RELATIVE HUMIDITY IN PERCENT < > WIND - DIRECTION AND SPEED IN MPH < > PRES - MEAN SEA LEVEL PRESSURE IN INCHES OF HG < > WCI - WIND CHILL INDEX < > VSB - VISIBILITY IN MILES < > HX - HEAT INDEX < > TC - TEMPERATURE IN CELSIUS < > VRB - VARIABLE WIND DIRECTION < > < >>>>>>>>>>>>>>>>>>>>>>>>>>>> KEY <<<<<<<<<<<<<<<<<<<<<<<<<<<

USA.gov is the U.S. government's official web portal to all federal, state and local government web resources and services.